Location: Unspecified
(0.0000°N, 0.0000°E)
Time: 21:40:08
(UTC+00:00)

Explorer 7 - Pass Details

Date: 25 June 2025
Orbit: 444 x 569 km, 50.3° (Epoch: 12 July)

Event Time Altitude Azimuth Distance (km) Brightness Sun altitude
Rises 09:26:57 0° 227° (SW) 2,753 10.0 45.6°
Reaches altitude 10° 09:29:18 10° 234° (SW) 1,844 9.2 46.0°
Maximum altitude 09:33:19 44° 306° (NW) 762 7.9 46.9°
Drops below altitude 10° 09:37:13 10° 19° (NNE) 1,780 10.1 47.6°
Sets 09:39:28 0° 26° (NNE) 2,645 10.9 48.1°
